User: anonymous   Login
Location: Unspecified
(0.0000°N, 0.0000°E)
Time: 03:42:19
(UTC+00:00)
Language:

Meteor 3-4 - Orbit

View from above orbital plane
View from above orbital plane
View from above satellite
View from above satellite

Ground track
Ground track

The orbit data is extracted from the following two-line orbital elements,

1 21232U 91030A   18017.50744448 +.00000111 +00000-0 +25884-3 0  9999
2 21232 082.5413 197.6385 0011972 273.6532 138.6942 13.16624475284828
Epoch (UTC): 17 January 2018 12:10:43
Eccentricity: 0.0011972
inclination: 82.5413°
perigee height: 1188 km
apogee height: 1207 km
right ascension of ascending node: 197.6385°
argument of perigee: 273.6532°
revolutions per day: 13.16624475
mean anomaly at epoch: 138.6942°
orbit number at epoch: 28482

The dashed part of the orbit path shows where the satellite is in the earth's shadow,  

DLR